Location: Newark
(42.9858°N, 0.6717°E)
Time: 02:09:05
(UTC+00:00)

Envisat - Pass Details

Date: 28 October 2019
Orbit: 764 x 766 km, 98.1° (Epoch: 11 November)

Event Time Altitude Azimuth Distance (km) Brightness Sun altitude
Rises 17:31:43 0° 152° (SSE) 3,219 6.1 -7.3°
Reaches altitude 10° 17:34:03 10° 148° (SSE) 2,297 5.3 -7.7°
Maximum altitude 17:38:58 54° 72° (ENE) 930 3.1 -8.6°
Drops below altitude 10° 17:43:55 10° 356° (N) 2,311 5.4 -9.5°
Sets 17:46:16 0° 352° (N) 3,242 6.2 -9.9°
